Home   Weather   Burnaby   Past weeks
Flag for Canada

Past Weather in Burnaby, British Columbia, Canada — Yesterday and Last 2 Weeks

Now
68 °F

Partly sunny.


Feels Like: 68 °F
Forecast: 70 / 58 °F
Wind: 13 mph from Southeast

Location: Vancouver International Airport

Current Time: Aug 18, 2019 at 1:02:10 pm

Latest Report: Aug 18, 2019 at 12:00 pm


Visibility: 25 mi

Pressure: 29.88 "Hg

Humidity: 64%

Dew Point: 55 °F

Location of BurnabyLocation

Past Weather in Burnaby — Graph

°F

Burnaby Temperature Yesterday

Maximum temperature yesterday: 70 °F (at 4:00 pm)
Minimum temperature yesterday: 63 °F (at 4:00 am)
Average temperature yesterday: 66 °F

High & Low Weather Summary for the Past Weeks

 TemperatureHumidityPressure
High77 °F (Aug 5, 3:00 pm)94% (Aug 4, 6:00 am)30.20 "Hg (Aug 4, 6:00 am)
Low55 °F (Aug 13, 6:00 am)50% (Aug 12, 6:00 pm)29.85 "Hg (Aug 7, 7:00 pm)
Average66 °F77%30.02 "Hg
* Reported Aug 3 11:00 am — Aug 18 11:00 am, Burnaby. Weather by CustomWeather, © 2019

Note: Actual official high and low records may vary slightly from our data, if they occured in-between our weather recording intervals... More about our weather records

Advertising

Burnaby Weather History for the Previous 24 Hours

Scroll right to see more
 ConditionsComfort  
Time TempWeatherWind HumidityBarometerVisibility
11:00 am
Sun, Aug 18
66 °FOvercast.14 mph68%29.88 "Hg25 mi
10:15 am64 °FBroken clouds.15 mph73%29.87 "Hg25 mi
10:00 am64 °FPartly sunny.14 mph73%29.87 "Hg25 mi
9:39 am66 °FPartly sunny.13 mph73%29.87 "Hg25 mi
9:13 am64 °FPartly sunny.14 mph73%29.86 "Hg25 mi
8:00 am59 °FPartly sunny.12 mph88%29.87 "Hg20 mi
7:00 am59 °FScattered clouds.12 mph88%29.85 "Hg20 mi
6:00 am59 °FPassing clouds.12 mph88%29.85 "Hg20 mi
5:00 am59 °FOvercast.8 mph88%29.86 "Hg20 mi
4:00 am59 °FPassing clouds.8 mph88%29.86 "Hg20 mi
3:00 am59 °FPassing clouds.8 mph88%29.87 "Hg20 mi
2:00 am61 °FPassing clouds.6 mph88%29.87 "Hg20 mi
1:00 am63 °FPassing clouds.5 mph77%29.88 "Hg20 mi
12:00 am64 °FPassing clouds.5 mph73%29.88 "Hg20 mi
11:00 pm
Sat, Aug 17
66 °FPassing clouds.3 mph68%29.89 "Hg20 mi
10:00 pm64 °FPassing clouds.6 mph73%29.89 "Hg20 mi
9:00 pm66 °FPassing clouds.3 mph73%29.89 "Hg20 mi
8:00 pm68 °FPartly sunny.6 mph64%29.89 "Hg20 mi
7:00 pm68 °FMostly cloudy.6 mph73%29.90 "Hg20 mi
6:00 pm70 °FBroken clouds.9 mph69%29.92 "Hg30 mi
5:00 pm70 °FBroken clouds.8 mph69%29.93 "Hg30 mi
4:00 pm70 °FBroken clouds.9 mph73%29.94 "Hg30 mi
3:00 pm68 °FMore clouds than sun.6 mph73%29.96 "Hg30 mi
2:00 pm68 °FMore clouds than sun.7 mph73%29.97 "Hg20 mi
1:00 pm68 °FCloudy.6 mph73%29.98 "Hg20 mi
Weather by CustomWeather, © 2019

See weather overview